GW2158 Weather Reports


time (UTC)temp
F
wind
direction
speed
knots
gust
knots
rain 1hr
in
rain 24hr
in
rain mn
in
humidity
%
barometer
mb
20260508004420 49 338 12.2 25.2 0.00 0.01 0.01 80 1006.1
20260508003909 50 0 13.9 26.9 0.01 0.01 0.01 80 1005.9
20260508002850 49 0 13.0 25.2 0.01 0.01 0.01 82 1005.9
20260508002340 49 338 16.5 26.1 0.01 0.01 0.01 83 1005.8
20260508001830 49 45 13.0 26.1 0.01 0.01 0.01 85 1005.9
20260508001320 49 0 14.8 26.1 0.01 0.01 0.01 85 1005.8
20260508000809 49 0 13.0 26.1 0.01 0.01 0.01 86 1005.8
20260508000259 49 0 11.3 23.5 0.01 0.01 0.01 88 1005.7
20260507235749 49 0 14.8 23.5 0.01 0.01 0.01 90 1005.8
20260507235239 48 338 13.0 26.1 0.01 0.01 0.01 91 1005.8
20260507234729 48 0 16.5 26.1 0.01 0.01 0.01 92 1005.6
20260507234219 48 248 18.2 26.1 0.01 0.01 0.01 92 1005.7
20260507233708 48 315 16.5 25.2 0.00 0.00 0.00 91 1005.6
20260507232648 49 338 15.6 27.8 0.00 0.00 0.00 89 1005.7
20260507232138 49 338 14.8 27.8 0.00 0.00 0.00 89 1005.5
20260507231629 49 0 15.6 27.8 0.00 0.00 0.00 91 1005.7
20260507231118 48 23 16.5 27.8 0.00 0.00 0.00 92 1005.2
20260507230057 48 0 14.8 26.1 0.00 0.00 0.00 93 1005.0
20260507225547 49 338 12.2 26.1 0.00 0.00 0.00 92 1004.9
20260507225037 49 23 13.9 26.9 0.00 0.00 0.00 91 1004.8
20260507224533 49 338 13.0 26.9 0.00 0.00 0.00 89 1004.8
20260507224017 50 0 16.5 25.2 0.00 0.00 0.00 88 1004.7
20260507223507 50 90 12.2 29.5 0.00 0.00 0.00 88 1005.0
20260507222957 50 0 13.0 29.5 0.00 0.00 0.00 87 1004.9
20260507222447 50 338 15.6 23.5 0.00 0.00 0.00 88 1004.7
20260507221937 50 338 13.9 25.2 0.00 0.00 0.00 88 1004.8
20260507220406 50 0 13.0 23.5 0.00 0.00 0.00 90 1004.9
20260507215856 50 45 9.6 20.0 0.00 0.00 0.00 91 1004.7
20260507215346 50 23 9.6 23.5 0.00 0.00 0.00 92 1004.6
20260507214836 50 338 15.6 23.5 0.00 0.00 0.00 92 1004.4
20260507214329 50 23 10.4 15.6 0.00 0.00 0.00 91 1004.7
20260507205704 51 338 12.2 23.5 0.00 0.04 0.00 90 1004.4
20260507203624 53 0 9.6 20.9 0.00 0.04 0.00 86 1004.2
20260507203114 53 338 14.8 21.7 0.00 0.04 0.00 86 1004.2
20260507202604 53 23 12.2 21.7 0.00 0.04 0.00 86 1004.2
20260507202054 53 23 11.3 21.7 0.00 0.04 0.00 85 1003.8
20260507201544 53 45 13.9 21.7 0.00 0.04 0.00 85 1003.6
20260507201034 53 0 13.0 23.5 0.00 0.04 0.00 85 1003.5
20260507200524 53 23 14.8 23.5 0.00 0.04 0.00 85 1003.3
20260507200014 53 0 14.8 20.9 0.00 0.04 0.00 85 1003.6
20260507195504 53 338 9.6 20.9 0.00 0.04 0.00 84 1003.6
20260507194953 53 338 12.2 20.9 0.00 0.04 0.00 84 1003.3
20260507194443 53 45 11.3 23.5 0.00 0.04 0.00 86 1003.1
20260507193933 52 45 11.3 23.5 0.00 0.04 0.00 87 1002.7
20260507193423 52 0 15.6 23.5 0.00 0.04 0.00 87 1002.9
20260507192912 53 0 14.8 23.5 0.00 0.04 0.00 84 1002.9
20260507192403 53 338 10.4 26.1 0.00 0.04 0.00 83 1003.1
20260507191856 53 0 14.8 26.1 0.00 0.04 0.00 82 1003.2
20260507191343 53 338 14.8 23.5 0.00 0.04 0.00 82 1003.5
20260507190832 53 0 17.4 26.1 0.00 0.04 0.00 83 1003.7
20260507190323 53 45 14.8 26.1 0.00 0.04 0.00 83 1004.1
20260507185305 54 23 13.0 23.5 0.00 0.04 0.00 83 1003.9
20260507184752 54 0 13.0 23.5 0.00 0.04 0.00 82 1004.1
20260507183732 54 338 16.5 26.9 0.00 0.04 0.00 83 1004.4
20260507183221 54 0 13.0 25.2 0.00 0.04 0.00 84 1004.3
20260507182712 54 315 14.8 20.0 0.00 0.04 0.00 84 1004.2
20260507182201 54 338 13.0 20.9 0.00 0.04 0.00 85 1004.3
20260507181651 54 0 12.2 23.5 0.00 0.04 0.00 85 1004.2
20260507181141 54 0 14.8 23.5 0.00 0.04 0.00 86 1004.3
20260507180634 54 45 13.9 23.5 0.00 0.04 0.00 87 1004.2
20260507180133 53 45 8.7 18.2 0.00 0.05 0.00 88 1004.2
20260507175614 53 45 7.0 19.1 0.00 0.05 0.00 89 1004.3
20260507175103 53 0 9.6 20.0 0.00 0.05 0.00 89 1004.3
20260507174554 53 23 12.2 20.0 0.00 0.05 0.00 89 1004.2
20260507174044 53 338 9.6 20.0 0.00 0.05 0.00 89 1004.1
20260507173533 53 0 12.2 20.9 0.00 0.05 0.00 89 1004.0
20260507173023 53 0 7.8 20.9 0.00 0.05 0.00 91 1004.2
20260507172513 53 0 13.9 20.9 0.00 0.05 0.00 91 1004.3
20260507172003 53 23 9.6 19.1 0.00 0.05 0.00 91 1004.3
20260507171453 53 23 9.6 20.0 0.00 0.05 0.00 91 1003.9
20260507170943 53 0 12.2 20.0 0.00 0.06 0.00 90 1004.0
20260507170433 53 45 12.2 18.2 0.00 0.06 0.00 89 1003.8
20260507165412 53 0 7.8 20.9 0.00 0.06 0.00 90 1004.3
20260507164903 53 23 9.6 20.9 0.00 0.06 0.00 89 1004.2
20260507163842 54 23 10.4 15.6 0.00 0.06 0.00 86 1004.2
20260507163332 55 0 9.6 17.4 0.00 0.06 0.00 84 1004.5
20260507162822 55 0 7.0 18.2 0.00 0.06 0.00 84 1004.6
20260507162312 55 23 10.4 18.2 0.00 0.06 0.00 82 1004.5
20260507161801 55 45 8.7 19.1 0.00 0.06 0.00 81 1004.5
20260507161251 55 45 9.6 19.1 0.00 0.06 0.00 81 1004.7
20260507160741 55 45 11.3 19.1 0.00 0.06 0.00 81 1004.8
20260507160231 55 23 9.6 19.1 0.00 0.06 0.00 80 1004.7
20260507155722 55 0 8.7 19.1 0.00 0.06 0.00 80 1004.8
20260507154701 56 0 9.6 17.4 0.00 0.06 0.00 78 1004.9
20260507154151 56 0 7.8 14.8 0.00 0.06 0.00 77 1004.7
20260507153644 56 338 9.6 14.8 0.00 0.06 0.00 76 1004.4
20260507153131 56 0 5.2 19.1 0.00 0.06 0.00 75 1004.4
20260507152620 56 0 8.7 19.1 0.00 0.06 0.00 74 1004.2
20260507152110 56 68 3.5 20.9 0.00 0.06 0.00 75 1004.2
20260507151601 56 68 11.3 20.9 0.00 0.06 0.00 75 1004.1
20260507151050 56 23 11.3 19.1 0.00 0.06 0.00 75 1003.9
20260507150540 56 23 8.7 20.0 0.00 0.06 0.00 75 1004.3
20260507150030 56 45 8.7 20.9 0.00 0.06 0.00 75 1004.0
20260507145520 56 338 13.0 20.9 0.00 0.06 0.00 75 1003.6
20260507145009 56 0 9.6 23.5 0.00 0.06 0.00 75 1003.8
20260507144500 55 0 13.0 26.9 0.00 0.06 0.00 74 1003.8
20260507143949 55 338 8.7 26.9 0.00 0.06 0.00 74 1003.6
20260507143440 55 23 12.2 21.7 0.00 0.06 0.00 73 1003.6
20260507142929 55 338 13.0 21.7 0.00 0.06 0.00 73 1003.9
20260507142419 55 338 13.0 20.9 0.00 0.06 0.00 74 1003.6
20260507141909 56 338 10.4 21.7 0.00 0.06 0.00 73 1003.7
20260507141359 56 23 13.0 21.7 0.00 0.06 0.00 73 1003.6
20260507140849 56 338 13.0 20.0 0.00 0.06 0.00 73 1003.6
20260507140338 56 315 13.0 20.0 0.00 0.06 0.00 73 1003.4
20260507135829 56 23 9.6 21.7 0.00 0.06 0.00 74 1003.3
20260507135319 56 23 11.3 21.7 0.00 0.08 0.00 73 1003.2
20260507134808 55 0 13.9 23.5 0.00 0.15 0.00 73 1003.4
20260507134258 56 23 12.2 23.5 0.00 0.35 0.00 74 1003.5
20260507132728 55 0 9.6 21.7 0.00 0.40 0.00 75 1003.3
20260507132217 55 45 12.2 21.7 0.00 0.40 0.00 74 1003.4
20260507131708 55 338 10.4 19.1 0.00 0.40 0.00 74 1003.5
20260507131157 55 0 9.6 19.1 0.00 0.40 0.00 75 1003.3
20260507130648 55 338 7.8 21.7 0.00 0.40 0.00 75 1003.3
20260507130137 55 23 13.0 23.5 0.00 0.40 0.00 75 1003.3
20260507125627 55 68 13.0 23.5 0.00 0.40 0.00 75 1003.2
20260507125118 55 23 10.4 20.9 0.00 0.40 0.00 76 1002.9
20260507124607 55 0 9.6 21.7 0.00 0.40 0.00 76 1003.1
20260507124057 55 23 9.6 25.2 0.00 0.40 0.00 76 1003.1
20260507123547 55 45 12.2 27.8 0.00 0.40 0.00 76 1002.5
20260507123037 55 0 13.0 27.8 0.00 0.40 0.00 76 1002.5
20260507122527 55 0 14.8 26.9 0.00 0.40 0.00 76 1002.7
20260507122024 55 23 13.0 23.5 0.00 0.40 0.00 77 1002.8
20260507121507 55 45 11.3 20.9 0.00 0.40 0.00 78 1002.9
20260507120956 54 90 13.0 20.9 0.00 0.40 0.00 78 1002.8
20260507120446 54 23 13.0 20.9 0.00 0.40 0.00 79 1003.1
20260507115936 54 23 14.8 20.9 0.00 0.40 0.00 79 1003.2
20260507114916 54 0 7.8 20.9 0.00 0.40 0.00 80 1003.4
20260507114406 54 23 11.3 18.2 0.00 0.40 0.00 81 1003.5
20260507113345 54 338 8.7 19.1 0.00 0.40 0.00 81 1003.5
20260507112836 54 68 10.4 19.1 0.00 0.40 0.00 81 1003.8
20260507112325 54 23 7.8 13.0 0.00 0.40 0.00 81 1003.4
20260507111815 54 23 7.0 13.9 0.00 0.40 0.00 80 1003.4
20260507111305 54 23 7.0 13.9 0.00 0.40 0.00 79 1004.0
20260507110755 55 45 8.7 13.9 0.00 0.40 0.00 79 1003.8
20260507110245 55 23 7.0 17.4 0.00 0.40 0.00 80 1003.9
20260507105734 55 338 10.4 17.4 0.00 0.40 0.00 79 1004.4
20260507105225 55 45 9.6 17.4 0.00 0.40 0.00 80 1004.7
20260507104714 55 0 7.8 18.2 0.00 0.40 0.00 80 1005.0
20260507104204 55 45 5.2 18.2 0.00 0.40 0.00 79 1005.2
20260507103654 55 23 8.7 15.6 0.00 0.40 0.00 79 1004.9
20260507103144 55 23 7.0 13.9 0.00 0.40 0.00 80 1004.9
20260507102634 55 23 7.0 13.0 0.00 0.40 0.00 79 1005.0
20260507102124 55 45 5.2 13.0 0.00 0.40 0.00 80 1005.2
20260507101104 56 23 6.1 13.9 0.00 0.40 0.00 81 1004.4
20260507100554 56 23 9.6 14.8 0.00 0.40 0.00 83 1004.7
20260507100044 56 23 7.8 14.8 0.00 0.40 0.00 86 1004.3
20260507095533 57 68 4.3 11.3 0.00 0.40 0.00 88 1004.2
20260507095024 57 45 6.1 11.3 0.00 0.40 0.00 88 1004.4
20260507094510 57 45 4.3 12.2 0.00 0.40 0.00 87 1004.5
20260507094004 57 68 7.0 12.2 0.00 0.40 0.00 86 1004.5
20260507093453 57 23 5.2 12.2 0.00 0.40 0.00 86 1004.7
20260507092943 58 45 6.1 12.2 0.00 0.40 0.00 86 1005.0
20260507092432 57 45 4.3 15.6 0.00 0.40 0.00 88 1005.2
20260507091923 57 45 7.8 15.6 0.00 0.40 0.00 90 1005.0
20260507091412 58 23 6.1 15.6 0.00 0.40 0.00 92 1005.1
20260507090903 58 0 7.0 12.2 0.00 0.40 0.00 94 1004.8
20260507090352 58 45 6.1 12.2 0.00 0.40 0.00 94 1005.0
20260507085332 58 23 5.2 11.3 0.00 0.40 0.00 94 1005.2
20260507084822 58 23 1.7 9.6 0.00 0.40 0.00 94 1005.3
20260507083802 58 45 4.3 11.3 0.00 0.40 0.00 94 1005.5
20260507083251 58 45 3.5 11.3 0.00 0.40 0.00 94 1005.5
20260507082742 58 0 3.5 11.3 0.00 0.40 0.00 95 1005.6
20260507082231 58 45 5.2 11.3 0.00 0.40 0.00 95 1005.8
20260507081721 58 0 2.6 9.6 0.00 0.40 0.00 95 1005.7
20260507081215 58 23 6.1 9.6 0.00 0.40 0.00 95 1005.3
20260507080700 58 23 2.6 7.0 0.00 0.40 0.00 96 1005.5
20260507080151 57 23 0.0 9.6 0.00 0.40 0.00 96 1005.2
20260507075641 57 0 1.7 9.6 0.00 0.40 0.00 96 1005.0
20260507075130 57 45 2.6 7.0 0.00 0.40 0.00 96 1005.0
20260507073600 57 45 0.9 7.8 0.00 0.40 0.00 96 1004.6
20260507073050 57 23 0.0 5.2 0.00 0.40 0.00 96 1004.7
20260507072540 57 68 0.0 9.6 0.00 0.40 0.00 96 1004.7
20260507071520 57 45 0.9 6.1 0.00 0.40 0.00 96 1004.5
20260507071010 57 23 0.0 5.2 0.00 0.40 0.00 96 1004.7
20260507070459 57 45 0.0 5.2 0.00 0.40 0.00 96 1004.2
20260507065950 57 0 0.0 6.1 0.00 0.40 0.00 96 1004.3
20260507065439 57 0 0.0 6.1 0.00 0.40 0.00 96 1004.3
20260507064930 57 23 0.0 5.2 0.00 0.40 0.00 96 1004.5
20260507063909 57 0 0.0 7.0 0.00 0.40 0.00 96 1004.1
20260507062848 58 45 3.5 7.0 0.00 0.40 0.00 95 1004.0
20260507062339 58 45 3.5 7.0 0.00 0.40 0.00 95 1004.0
20260507061829 58 0 1.7 7.0 0.00 0.40 0.00 95 1004.4
20260507061318 58 338 0.9 6.1 0.00 0.40 0.00 95 1004.7
20260507060808 58 338 0.0 7.8 0.00 0.40 0.00 94 1004.3
20260507060258 58 0 1.7 7.8 0.00 0.40 0.00 94 1004.5
20260507055748 59 315 0.0 5.2 0.00 0.40 0.00 94 1004.7
20260507055237 59 338 1.7 6.1 0.00 0.40 0.00 94 1004.8
20260507054728 59 315 0.0 7.8 0.00 0.40 0.00 94 1004.7
20260507053708 59 248 3.5 12.2 0.00 0.40 0.00 95 1004.3
20260507053157 59 315 2.6 9.6 0.00 0.40 0.00 94 1004.1
20260507052648 59 293 3.5 9.6 0.00 0.40 0.00 94 1004.0
20260507052137 59 315 5.2 12.2 0.00 0.40 0.00 94 1004.1
20260507051628 59 315 7.0 12.2 0.00 0.40 0.00 94 1003.9
20260507051117 59 0 5.2 12.2 0.00 0.40 0.00 94 1003.4
20260507050607 59 0 6.1 13.0 0.00 0.40 0.00 93 1003.1
20260507050107 59 338 7.0 13.0 0.00 0.40 0.00 93 1003.1
20260507045547 59 338 7.0 13.9 0.00 0.40 0.00 93 1002.7
20260507045037 59 338 3.5 13.9 0.00 0.40 0.00 93 1002.7
20260507044530 59 338 7.0 13.0 0.00 0.40 0.00 93 1002.1
20260507044017 60 0 7.0 13.0 0.00 0.40 0.00 93 1001.8
20260507043506 60 0 4.3 12.2 0.00 0.40 0.00 92 1002.0
20260507042446 60 0 7.0 11.3 0.00 0.40 0.00 92 1001.9
20260507041937 60 338 7.8 11.3 0.00 0.40 0.00 91 1002.5
20260507040916 60 0 3.5 7.8 0.00 0.40 0.00 91 1003.0
20260507040405 61 0 3.5 7.0 0.00 0.40 0.00 90 1003.1
20260507035856 60 293 1.7 5.2 0.00 0.40 0.00 90 1003.4
20260507035346 61 270 1.7 3.5 0.00 0.40 0.00 90 1003.5
20260507034835 60 225 0.0 6.1 0.00 0.40 0.00 90 1003.7
20260507033816 61 270 1.7 9.6 0.00 0.40 0.00 90 1003.2
20260507032755 60 338 5.2 13.0 0.00 0.40 0.00 90 1002.6
20260507032244 60 338 6.1 13.9 0.00 0.40 0.00 90 1002.4
20260507031734 60 338 7.0 13.9 0.00 0.40 0.00 90 1002.1
20260507030205 60 338 8.7 13.9 0.00 0.40 0.00 91 1001.5
20260507025144 60 338 7.0 13.0 0.00 0.40 0.40 91 1002.1
20260507024634 60 0 6.1 11.3 0.00 0.40 0.40 90 1002.4
20260507023614 61 0 4.3 9.6 0.00 0.40 0.40 89 1002.6
20260507023104 61 23 3.5 9.6 0.00 0.40 0.40 89 1002.9
20260507021023 61 0 4.3 9.6 0.00 0.40 0.40 89 1002.6
20260507020513 61 45 5.2 7.8 0.00 0.40 0.40 90 1002.6
20260507020011 61 23 4.3 7.8 0.00 0.40 0.40 91 1002.4
20260507015453 61 0 4.3 9.6 0.00 0.40 0.40 91 1002.2
20260507014433 62 0 7.0 9.6 0.00 0.40 0.40 89 1002.0
20260507013922 62 0 6.1 11.3 0.00 0.40 0.40 89 1002.1
20260507013412 62 338 5.2 13.0 0.00 0.40 0.40 88 1002.1
20260507012903 63 0 7.0 13.0 0.00 0.40 0.40 87 1001.8
20260507011842 64 338 7.0 14.8 0.00 0.40 0.40 88 1002.0
20260507011332 64 338 6.1 13.9 0.00 0.40 0.40 89 1002.2
20260507010822 65 0 7.8 13.9 0.00 0.40 0.40 90 1002.4
20260507005801 68 315 7.0 18.2 0.00 0.40 0.40 90 1002.1
20260507005252 68 315 7.0 20.9 0.00 0.40 0.40 90 1002.4
20260507004746 69 315 13.0 23.5 0.00 0.40 0.40 89 1002.9